Location: Misciano
(43.5000°N, 11.9500°E)
Time: 16:48:01
(UTC+00:00)

Cosmos 1833 Rocket - Pass Details

Date: 13 August 2020
Orbit: 831 x 841 km, 71.0° (Epoch: 25 September)

Event Time Altitude Azimuth Distance (km) Brightness Sun altitude
Rises 19:28:07 0° 220° (SW) 3,364 5.9 -12.1°
Reaches altitude 10° 19:30:38 10° 226° (SW) 2,436 5.3 -12.5°
Maximum altitude 19:36:01 48° 300° (WNW) 1,082 3.8 -13.3°
Drops below altitude 10° 19:41:28 10° 15° (NNE) 2,457 5.4 -14.1°
Sets 19:44:01 0° 21° (NNE) 3,396 6.1 -14.5°
